QPF
0.04 0.03 0.03 0.05 0.03 0.02 0.01 0.01 0.02 0.03 0.05 0.04 0.03 0.03 0.03 0.03 0.04 0.05 0.07 0.05 0.04 0.07 0.12 0.15 0.14 0.15 0.13 0.09 0.08 0.11 0.09 0.11 0.10 0.06 0.04 0.05 0.05 0.04 0.04 0.05 0.05 0.04 0.04 0.04 0.04 0.04 0.03 0.03 0.02
0.03 0.08 0.05 0.02 0.02 0.01 0.01 0.02 0.02 0.04 0.05 0.03 0.04 0.06 0.08 0.04 0.04 0.04 0.06 0.06 0.05 0.04 0.09 0.14 0.11 0.11 0.12 0.11 0.10 0.12 0.09 0.07 0.06 0.05 0.04 0.04 0.05 0.04 0.03 0.05 0.04 0.02 0.02 0.02 0.03 0.03 0.03 0.03 0.02
0.04 0.03 0.01 0.01 0.01 0.01 0.01 0.03 0.03 0.03 0.02 0.03 0.05 0.05 0.09 0.07 0.06 0.08 0.11 0.06 0.05 0.04 0.07 0.10 0.11 0.09 0.11 0.09 0.10 0.11 0.09 0.07 0.05 0.05 0.04 0.04 0.05 0.04 0.03 0.04 0.03 0.01 0.01 0.01 0.01 0.02 0.02 0.02 0.01
0.01 0.01 0.01 0.01 0.01 0.01 0.01 0.03 0.03 0.02 0.01 0.02 0.04 0.04 0.07 0.10 0.10 0.13 0.15 0.06 0.05 0.05 0.08 0.09 0.10 0.10 0.11 0.09 0.08 0.07 0.05 0.05 0.07 0.07 0.05 0.05 0.05 0.04 0.02 0.02 0.02 0.01 0.02 0.01 0.01 0.02 0.02 0.02 0.01
0.00 0.01 0.01 0.01 0.02 0.01 0.02 0.03 0.03 0.03 0.02 0.02 0.03 0.04 0.09 0.10 0.09 0.14 0.16 0.10 0.07 0.10 0.11 0.10 0.09 0.11 0.10 0.07 0.06 0.03 0.03 0.06 0.13 0.08 0.07 0.06 0.05 0.03 0.02 0.01 0.01 0.01 0.01 0.01 0.01 0.01 0.01 0.01 0.01
0.00 0.00 0.01 0.02 0.02 0.02 0.04 0.03 0.02 0.02 0.02 0.02 0.05 0.04 0.07 0.08 0.07 0.12 0.14 0.13 0.12 0.16 0.14 0.11 0.11 0.13 0.10 0.06 0.05 0.03 0.03 0.06 0.14 0.09 0.09 0.07 0.06 0.03 0.01 0.00 0.00 0.00 0.00 0.00 0.01 0.00 0.00 0.00 0.01
0.00 0.00 0.01 0.01 0.02 0.03 0.04 0.04 0.02 0.02 0.02 0.02 0.04 0.06 0.05 0.06 0.06 0.10 0.13 0.14 0.16 0.17 0.15 0.10 0.09 0.11 0.07 0.04 0.04 0.03 0.03 0.03 0.06 0.07 0.06 0.05 0.04 0.01 0.00 0.00 0.00 0.00 0.00 0.01 0.00 0.00 0.00 0.00 0.01
0.00 0.00 0.01 0.01 0.02 0.03 0.03 0.02 0.02 0.02 0.02 0.02 0.03 0.05 0.07 0.06 0.06 0.10 0.12 0.13 0.14 0.12 0.08 0.05 0.04 0.07 0.06 0.04 0.03 0.03 0.02 0.02 0.02 0.02 0.02 0.01 0.01 0.01 0.00 0.00 0.00 0.00 0.00 0.00 0.00 0.00 0.01 0.01 0.01
0.00 0.01 0.02 0.02 0.02 0.02 0.01 0.02 0.02 0.01 0.01 0.01 0.02 0.02 0.02 0.03 0.07 0.08 0.08 0.07 0.07 0.05 0.04 0.04 0.04 0.06 0.05 0.04 0.03 0.03 0.02 0.01 0.01 0.00 0.00 0.00 0.00 0.00 0.00 0.00 0.00 0.00 0.00 0.00 0.00 0.00 0.00 0.00 0.00
0.00 0.01 0.02 0.02 0.02 0.01 0.01 0.02 0.01 0.01 0.01 0.01 0.01 0.01 0.01 0.02 0.05 0.05 0.05 0.03 0.04 0.04 0.04 0.04 0.04 0.04 0.03 0.03 0.03 0.03 0.01 0.00 0.00 0.00 0.00 0.00 0.00 0.00 0.00 0.00 0.00 0.00 0.00 0.00 0.00 0.00 0.00 0.00 0.00
0.00 0.01 0.01 0.02 0.01 0.02 0.02 0.01 0.01 0.01 0.01 0.01 0.01 0.01 0.01 0.02 0.03 0.03 0.04 0.02 0.03 0.04 0.04 0.04 0.05 0.04 0.03 0.02 0.03 0.02 0.00 0.00 0.00 0.00 0.00 0.00 0.00 0.00 0.00 0.00 0.00 0.00 0.00 0.00 0.00 0.00 0.00 0.00 0.00
0.00 0.01 0.01 0.02 0.02 0.03 0.03 0.01 0.01 0.01 0.01 0.01 0.01 0.01 0.02 0.02 0.01 0.02 0.02 0.02 0.03 0.04 0.04 0.04 0.05 0.07 0.05 0.03 0.01 0.00 0.00 0.00 0.00 0.00 0.00 0.00 0.00 0.00 0.00 0.00 0.00 0.00 0.00 0.00 0.00 0.00 0.00 0.00 0.00
0.01 0.01 0.02 0.01 0.02 0.03 0.03 0.02 0.01 0.02 0.01 0.01 0.01 0.01 0.01 0.01 0.01 0.02 0.03 0.03 0.04 0.05 0.06 0.06 0.05 0.06 0.05 0.02 0.00 0.00 0.00 0.00 0.00 0.00 0.00 0.00 0.00 0.00 0.00 0.00 0.00 0.00 0.00 0.00 0.00 0.00 0.00 0.00 0.00
0.01 0.01 0.01 0.02 0.02 0.03 0.03 0.03 0.02 0.03 0.02 0.01 0.01 0.01 0.01 0.01 0.01 0.01 0.02 0.03 0.04 0.04 0.06 0.08 0.05 0.04 0.03 0.01 0.00 0.00 0.00 0.00 0.00 0.00 0.00 0.00 0.00 0.00 0.00 0.00 0.00 0.00 0.00 0.00 0.00 0.00 0.00 0.00 0.00
0.01 0.01 0.02 0.02 0.02 0.02 0.02 0.03 0.03 0.03 0.02 0.02 0.01 0.01 0.01 0.01 0.01 0.01 0.02 0.02 0.03 0.04 0.04 0.06 0.05 0.03 0.01 0.00 0.00 0.00 0.00 0.00 0.00 0.00 0.00 0.00 0.00 0.00 0.00 0.00 0.00 0.00 0.00 0.00 0.00 0.00 0.00 0.00 0.00
0.01 0.01 0.01 0.02 0.02 0.01 0.02 0.03 0.03 0.03 0.03 0.04 0.03 0.02 0.01 0.01 0.01 0.02 0.03 0.05 0.04 0.04 0.03 0.04 0.05 0.02 0.01 0.00 0.00 0.00 0.00 0.00 0.00 0.00 0.00 0.00 0.00 0.00 0.00 0.00 0.00 0.00 0.00 0.00 0.00 0.00 0.00 0.00 0.00
0.02 0.02 0.02 0.02 0.02 0.01 0.02 0.02 0.02 0.03 0.05 0.07 0.06 0.04 0.03 0.01 0.02 0.01 0.02 0.03 0.03 0.02 0.01 0.02 0.03 0.01 0.01 0.01 0.01 0.01 0.00 0.00 0.00 0.00 0.00 0.00 0.00 0.00 0.00 0.00 0.00 0.00 0.00 0.00 0.00 0.00 0.00 0.01 0.01
0.01 0.01 0.01 0.01 0.02 0.02 0.01 0.01 0.01 0.02 0.05 0.06 0.06 0.04 0.02 0.02 0.02 0.02 0.02 0.02 0.03 0.01 0.01 0.01 0.02 0.01 0.01 0.01 0.02 0.01 0.01 0.00 0.00 0.00 0.00 0.00 0.00 0.00 0.00 0.00 0.00 0.00 0.00 0.00 0.00 0.00 0.00 0.01 0.01
0.01 0.01 0.01 0.01 0.01 0.02 0.01 0.01 0.01 0.01 0.03 0.03 0.03 0.04 0.02 0.01 0.01 0.01 0.02 0.02 0.02 0.01 0.01 0.02 0.02 0.01 0.01 0.01 0.02 0.01 0.01 0.00 0.00 0.00 0.00 0.00 0.00 0.00 0.00 0.00 0.00 0.00 0.00 0.00 0.00 0.00 0.01 0.01 0.00
0.01 0.01 0.01 0.01 0.01 0.01 0.01 0.01 0.00 0.00 0.02 0.01 0.01 0.01 0.03 0.01 0.01 0.01 0.01 0.01 0.01 0.01 0.01 0.01 0.01 0.01 0.01 0.01 0.01 0.01 0.00 0.00 0.00 0.00 0.00 0.00 0.00 0.00 0.00 0.00 0.00 0.00 0.00 0.00 0.00 0.01 0.01 0.00 0.00
0.01 0.01 0.01 0.01 0.01 0.01 0.01 0.02 0.01 0.00 0.00 0.00 0.00 0.00 0.01 0.01 0.00 0.00 0.00 0.01 0.00 0.00 0.01 0.01 0.01 0.01 0.01 0.01 0.00 0.00 0.00 0.00 0.00 0.00 0.00 0.00 0.00 0.00 0.00 0.00 0.00 0.00 0.00 0.00 0.00 0.01 0.01 0.01 0.00
0.01 0.00 0.01 0.01 0.01 0.01 0.01 0.02 0.01 0.00 0.00 0.00 0.00 0.00 0.00 0.00 0.00 0.00 0.00 0.00 0.00 0.01 0.01 0.01 0.01 0.00 0.00 0.01 0.00 0.00 0.00 0.00 0.00 0.00 0.00 0.00 0.00 0.00 0.00 0.00 0.00 0.00 0.00 0.00 0.00 0.01 0.01 0.01 0.01
0.01 0.01 0.01 0.01 0.01 0.01 0.00 0.00 0.00 0.00 0.00 0.00 0.00 0.00 0.00 0.00 0.00 0.00 0.00 0.00 0.01 0.01 0.01 0.01 0.01 0.01 0.01 0.01 0.01 0.00 0.00 0.00 0.00 0.00 0.00 0.00 0.00 0.00 0.00 0.00 0.00 0.00 0.00 0.00 0.00 0.00 0.00 0.00 0.00
0.00 0.01 0.01 0.01 0.01 0.01 0.00 0.00 0.00 0.00 0.00 0.00 0.00 0.00 0.00 0.00 0.00 0.00 0.00 0.00 0.00 0.00 0.01 0.01 0.01 0.01 0.01 0.01 0.02 0.01 0.00 0.00 0.00 0.00 0.00 0.00 0.00 0.00 0.00 0.00 0.00 0.00 0.00 0.00 0.00 0.00 0.00 0.00 0.00
0.01 0.01 0.02 0.02 0.02 0.01 0.00 0.00 0.00 0.00 0.00 0.00 0.00 0.00 0.00 0.00 0.00 0.00 0.00 0.00 0.00 0.00 0.00 0.01 0.01 0.01 0.01 0.01 0.01 0.00 0.00 0.00 0.00 0.00 0.00 0.00 0.00 0.00 0.00 0.00 0.00 0.00 0.00 0.00 0.00 0.00 0.00 0.00 0.00
0.01 0.01 0.01 0.02 0.01 0.01 0.00 0.00 0.00 0.00 0.00 0.00 0.00 0.00 0.00 0.00 0.00 0.00 0.00 0.00 0.00 0.00 0.00 0.00 0.01 0.01 0.01 0.01 0.01 0.00 0.00 0.00 0.00 0.00 0.00 0.00 0.00 0.00 0.00 0.00 0.00 0.00 0.00 0.00 0.00 0.00 0.00 0.00 0.00
0.01 0.01 0.01 0.01 0.01 0.01 0.01 0.00 0.00 0.00 0.00 0.00 0.00 0.00 0.00 0.00 0.00 0.00 0.00 0.00 0.00 0.00 0.00 0.00 0.00 0.01 0.01 0.02 0.02 0.01 0.01 0.00 0.00 0.00 0.00 0.00 0.00 0.00 0.00 0.00 0.00 0.00 0.00 0.00 0.00 0.00 0.00 0.00 0.00
0.01 0.01 0.01 0.02 0.02 0.01 0.01 0.00 0.00 0.00 0.00 0.00 0.00 0.00 0.00 0.00 0.00 0.00 0.00 0.00 0.01 0.01 0.01 0.01 0.01 0.01 0.01 0.01 0.01 0.01 0.01 0.00 0.00 0.00 0.00 0.00 0.00 0.00 0.00 0.00 0.00 0.00 0.00 0.00 0.00 0.00 0.00 0.00 0.00
0.01 0.01 0.01 0.02 0.02 0.02 0.01 0.00 0.00 0.00 0.00 0.00 0.00 0.00 0.00 0.00 0.00 0.00 0.00 0.00 0.00 0.00 0.01 0.00 0.01 0.01 0.01 0.01 0.01 0.01 0.01 0.00 0.00 0.00 0.00 0.01 0.01 0.00 0.00 0.00 0.00 0.00 0.00 0.00 0.00 0.00 0.00 0.00 0.00
0.00 0.01 0.01 0.02 0.02 0.01 0.02 0.02 0.01 0.01 0.01 0.00 0.00 0.00 0.00 0.00 0.00 0.00 0.00 0.00 0.00 0.00 0.00 0.00 0.00 0.00 0.01 0.01 0.01 0.01 0.01 0.00 0.00 0.00 0.01 0.01 0.01 0.01 0.00 0.00 0.00 0.00 0.00 0.00 0.00 0.00 0.00 0.00 0.00
MSLP
1009.61 1010.14 1010.96 1012.01 1013.20 1014.45 1015.65 1016.72 1017.60 1018.25 1018.68 1018.94 1019.05 1019.06 1018.99 1018.87 1018.70 1018.47 1018.19 1017.87 1017.53 1017.20 1016.94 1016.76 1016.69 1016.72 1016.83 1016.96 1017.07 1017.13 1017.12 1017.04 1016.92 1016.80 1016.71 1016.68 1016.70 1016.76 1016.84 1016.88 1016.87 1016.81 1016.69 1016.55 1016.42 1016.32 1016.28 1016.28 1016.30
1010.00 1010.66 1011.57 1012.67 1013.88 1015.10 1016.26 1017.27 1018.10 1018.71 1019.13 1019.39 1019.51 1019.53 1019.46 1019.33 1019.12 1018.84 1018.51 1018.13 1017.74 1017.39 1017.12 1016.95 1016.91 1016.97 1017.11 1017.28 1017.42 1017.51 1017.52 1017.46 1017.36 1017.25 1017.16 1017.11 1017.11 1017.14 1017.17 1017.18 1017.14 1017.04 1016.92 1016.78 1016.66 1016.59 1016.56 1016.57 1016.59
1010.57 1011.33 1012.30 1013.40 1014.55 1015.69 1016.73 1017.64 1018.38 1018.94 1019.34 1019.60 1019.75 1019.80 1019.76 1019.64 1019.43 1019.13 1018.76 1018.35 1017.93 1017.56 1017.29 1017.13 1017.11 1017.20 1017.37 1017.56 1017.73 1017.84 1017.87 1017.83 1017.74 1017.64 1017.55 1017.50 1017.47 1017.47 1017.47 1017.43 1017.36 1017.26 1017.13 1017.01 1016.91 1016.85 1016.84 1016.85 1016.87
1011.25 1012.09 1013.06 1014.11 1015.15 1016.14 1017.04 1017.80 1018.42 1018.92 1019.29 1019.57 1019.76 1019.86 1019.88 1019.80 1019.61 1019.32 1018.94 1018.52 1018.10 1017.74 1017.47 1017.33 1017.33 1017.44 1017.62 1017.83 1018.01 1018.13 1018.17 1018.13 1018.06 1017.96 1017.87 1017.81 1017.77 1017.74 1017.71 1017.66 1017.57 1017.47 1017.35 1017.25 1017.17 1017.13 1017.13 1017.14 1017.14
1011.99 1012.87 1013.81 1014.75 1015.64 1016.45 1017.16 1017.76 1018.26 1018.67 1019.03 1019.33 1019.57 1019.75 1019.84 1019.82 1019.68 1019.42 1019.07 1018.67 1018.27 1017.93 1017.69 1017.57 1017.59 1017.71 1017.90 1018.10 1018.27 1018.38 1018.41 1018.38 1018.30 1018.20 1018.12 1018.05 1018.00 1017.96 1017.92 1017.86 1017.78 1017.68 1017.58 1017.50 1017.44 1017.42 1017.41 1017.41 1017.39
1012.72 1013.60 1014.46 1015.28 1016.00 1016.61 1017.13 1017.56 1017.94 1018.30 1018.64 1018.97 1019.27 1019.53 1019.69 1019.75 1019.67 1019.47 1019.17 1018.81 1018.45 1018.14 1017.94 1017.85 1017.89 1018.02 1018.19 1018.38 1018.52 1018.60 1018.61 1018.56 1018.47 1018.37 1018.29 1018.22 1018.17 1018.13 1018.08 1018.03 1017.96 1017.88 1017.80 1017.74 1017.70 1017.68 1017.67 1017.65 1017.60
1013.40 1014.25 1015.02 1015.69 1016.24 1016.67 1017.02 1017.31 1017.60 1017.90 1018.24 1018.60 1018.96 1019.29 1019.53 1019.65 1019.64 1019.49 1019.24 1018.93 1018.63 1018.37 1018.20 1018.14 1018.19 1018.32 1018.48 1018.64 1018.75 1018.79 1018.77 1018.69 1018.59 1018.48 1018.39 1018.32 1018.28 1018.24 1018.21 1018.16 1018.10 1018.04 1017.98 1017.94 1017.90 1017.88 1017.86 1017.82 1017.75
1014.02 1014.81 1015.49 1016.03 1016.43 1016.71 1016.92 1017.10 1017.31 1017.59 1017.93 1018.32 1018.73 1019.11 1019.41 1019.58 1019.62 1019.52 1019.31 1019.05 1018.79 1018.58 1018.45 1018.42 1018.48 1018.59 1018.73 1018.85 1018.92 1018.93 1018.87 1018.77 1018.66 1018.54 1018.45 1018.39 1018.35 1018.32 1018.29 1018.25 1018.20 1018.15 1018.10 1018.06 1018.03 1017.99 1017.96 1017.90 1017.81
1014.58 1015.31 1015.90 1016.33 1016.61 1016.78 1016.90 1017.02 1017.19 1017.44 1017.79 1018.20 1018.64 1019.05 1019.37 1019.57 1019.63 1019.56 1019.38 1019.16 1018.93 1018.75 1018.65 1018.63 1018.69 1018.80 1018.91 1019.00 1019.03 1019.00 1018.92 1018.81 1018.69 1018.57 1018.49 1018.43 1018.39 1018.36 1018.33 1018.29 1018.24 1018.19 1018.14 1018.10 1018.06 1018.02 1017.98 1017.91 1017.82
1015.09 1015.77 1016.29 1016.64 1016.85 1016.96 1017.02 1017.11 1017.26 1017.51 1017.85 1018.27 1018.70 1019.11 1019.43 1019.62 1019.68 1019.61 1019.44 1019.23 1019.02 1018.86 1018.77 1018.77 1018.82 1018.91 1019.01 1019.06 1019.07 1019.03 1018.94 1018.82 1018.70 1018.60 1018.52 1018.47 1018.43 1018.40 1018.36 1018.31 1018.25 1018.19 1018.13 1018.08 1018.04 1018.00 1017.96 1017.90 1017.82
1015.59 1016.23 1016.70 1017.01 1017.18 1017.25 1017.30 1017.38 1017.52 1017.76 1018.09 1018.48 1018.89 1019.26 1019.54 1019.70 1019.73 1019.64 1019.47 1019.26 1019.06 1018.90 1018.82 1018.82 1018.87 1018.95 1019.02 1019.07 1019.07 1019.02 1018.93 1018.83 1018.73 1018.64 1018.57 1018.53 1018.49 1018.46 1018.41 1018.34 1018.27 1018.19 1018.12 1018.06 1018.02 1017.99 1017.96 1017.92 1017.86
1016.10 1016.71 1017.15 1017.43 1017.59 1017.67 1017.71 1017.79 1017.93 1018.15 1018.45 1018.79 1019.14 1019.44 1019.66 1019.77 1019.75 1019.63 1019.44 1019.23 1019.03 1018.89 1018.81 1018.81 1018.86 1018.94 1019.01 1019.05 1019.06 1019.02 1018.95 1018.87 1018.80 1018.73 1018.68 1018.65 1018.61 1018.57 1018.50 1018.42 1018.33 1018.24 1018.16 1018.10 1018.07 1018.05 1018.05 1018.04 1018.03
1016.63 1017.21 1017.64 1017.92 1018.08 1018.16 1018.22 1018.29 1018.41 1018.59 1018.83 1019.10 1019.36 1019.58 1019.72 1019.76 1019.70 1019.55 1019.36 1019.15 1018.96 1018.83 1018.77 1018.78 1018.84 1018.93 1019.01 1019.07 1019.09 1019.08 1019.04 1018.99 1018.94 1018.90 1018.87 1018.84 1018.81 1018.75 1018.68 1018.58 1018.48 1018.38 1018.30 1018.25 1018.23 1018.24 1018.27 1018.31 1018.34
1017.19 1017.75 1018.16 1018.43 1018.60 1018.69 1018.75 1018.80 1018.88 1019.00 1019.16 1019.33 1019.49 1019.62 1019.68 1019.66 1019.56 1019.40 1019.21 1019.02 1018.87 1018.77 1018.75 1018.78 1018.87 1018.98 1019.08 1019.17 1019.22 1019.24 1019.24 1019.22 1019.19 1019.17 1019.15 1019.13 1019.09 1019.03 1018.95 1018.84 1018.74 1018.63 1018.56 1018.52 1018.52 1018.57 1018.64 1018.72 1018.81
1017.76 1018.29 1018.68 1018.95 1019.12 1019.21 1019.25 1019.27 1019.30 1019.34 1019.39 1019.46 1019.51 1019.54 1019.52 1019.45 1019.34 1019.19 1019.03 1018.89 1018.79 1018.74 1018.76 1018.85 1018.97 1019.12 1019.26 1019.38 1019.46 1019.52 1019.54 1019.55 1019.54 1019.53 1019.51 1019.49 1019.45 1019.38 1019.29 1019.19 1019.08 1018.99 1018.92 1018.90 1018.93 1019.00 1019.11 1019.24 1019.37
1018.33 1018.82 1019.18 1019.44 1019.60 1019.68 1019.70 1019.67 1019.63 1019.58 1019.52 1019.47 1019.42 1019.36 1019.28 1019.18 1019.07 1018.95 1018.84 1018.77 1018.73 1018.76 1018.84 1018.98 1019.15 1019.34 1019.53 1019.68 1019.81 1019.89 1019.94 1019.96 1019.96 1019.95 1019.93 1019.90 1019.85 1019.78 1019.69 1019.59 1019.48 1019.40 1019.35 1019.34 1019.38 1019.48 1019.61 1019.78 1019.95
1018.85 1019.30 1019.64 1019.87 1020.02 1020.08 1020.07 1020.00 1019.88 1019.73 1019.57 1019.41 1019.26 1019.12 1019.00 1018.89 1018.80 1018.73 1018.69 1018.69 1018.74 1018.83 1018.98 1019.18 1019.40 1019.63 1019.85 1020.05 1020.20 1020.31 1020.38 1020.41 1020.41 1020.39 1020.36 1020.31 1020.25 1020.18 1020.08 1019.99 1019.89 1019.82 1019.77 1019.77 1019.82 1019.92 1020.07 1020.25 1020.45
1019.31 1019.70 1020.01 1020.23 1020.37 1020.41 1020.37 1020.25 1020.05 1019.81 1019.55 1019.29 1019.06 1018.87 1018.72 1018.62 1018.57 1018.56 1018.60 1018.67 1018.80 1018.96 1019.16 1019.40 1019.66 1019.92 1020.17 1020.39 1020.57 1020.70 1020.78 1020.82 1020.83 1020.80 1020.76 1020.70 1020.63 1020.54 1020.45 1020.36 1020.26 1020.19 1020.14 1020.13 1020.18 1020.27 1020.41 1020.59 1020.81
1019.66 1020.01 1020.29 1020.51 1020.64 1020.67 1020.60 1020.43 1020.17 1019.85 1019.50 1019.17 1018.87 1018.64 1018.49 1018.41 1018.41 1018.47 1018.57 1018.72 1018.90 1019.11 1019.35 1019.60 1019.88 1020.15 1020.41 1020.65 1020.85 1020.99 1021.09 1021.15 1021.16 1021.13 1021.08 1021.02 1020.94 1020.85 1020.76 1020.67 1020.58 1020.50 1020.44 1020.41 1020.43 1020.50 1020.62 1020.78 1021.00
1019.89 1020.20 1020.48 1020.69 1020.83 1020.86 1020.77 1020.56 1020.24 1019.85 1019.43 1019.03 1018.69 1018.44 1018.30 1018.26 1018.31 1018.44 1018.61 1018.81 1019.03 1019.26 1019.50 1019.75 1020.00 1020.26 1020.52 1020.76 1020.96 1021.13 1021.26 1021.33 1021.36 1021.35 1021.32 1021.26 1021.19 1021.11 1021.02 1020.93 1020.83 1020.75 1020.67 1020.62 1020.60 1020.63 1020.71 1020.85 1021.04
1020.00 1020.30 1020.58 1020.81 1020.95 1020.98 1020.88 1020.63 1020.26 1019.80 1019.32 1018.86 1018.49 1018.24 1018.12 1018.13 1018.25 1018.44 1018.67 1018.92 1019.16 1019.38 1019.60 1019.81 1020.02 1020.24 1020.46 1020.69 1020.90 1021.09 1021.25 1021.36 1021.43 1021.46 1021.45 1021.42 1021.38 1021.31 1021.24 1021.15 1021.06 1020.96 1020.87 1020.79 1020.73 1020.71 1020.74 1020.84 1021.00
1020.01 1020.31 1020.61 1020.86 1021.02 1021.05 1020.92 1020.63 1020.20 1019.67 1019.13 1018.63 1018.23 1017.99 1017.90 1017.97 1018.16 1018.42 1018.71 1018.99 1019.24 1019.45 1019.62 1019.77 1019.92 1020.08 1020.27 1020.47 1020.68 1020.90 1021.09 1021.25 1021.38 1021.47 1021.51 1021.53 1021.52 1021.49 1021.44 1021.37 1021.28 1021.18 1021.08 1020.97 1020.88 1020.82 1020.80 1020.85 1020.97
1019.97 1020.29 1020.61 1020.88 1021.06 1021.07 1020.91 1020.56 1020.05 1019.45 1018.83 1018.28 1017.87 1017.63 1017.58 1017.71 1017.98 1018.32 1018.67 1018.99 1019.25 1019.44 1019.57 1019.66 1019.74 1019.84 1019.97 1020.15 1020.36 1020.60 1020.83 1021.06 1021.25 1021.41 1021.52 1021.60 1021.64 1021.65 1021.63 1021.59 1021.52 1021.44 1021.33 1021.22 1021.11 1021.01 1020.95 1020.95 1021.02
1019.90 1020.26 1020.61 1020.91 1021.08 1021.07 1020.84 1020.41 1019.82 1019.12 1018.42 1017.81 1017.37 1017.14 1017.13 1017.32 1017.66 1018.08 1018.51 1018.88 1019.16 1019.35 1019.45 1019.49 1019.51 1019.55 1019.64 1019.79 1020.00 1020.26 1020.54 1020.82 1021.09 1021.31 1021.50 1021.64 1021.74 1021.80 1021.82 1021.82 1021.79 1021.73 1021.64 1021.53 1021.42 1021.31 1021.22 1021.18 1021.20
1019.85 1020.25 1020.63 1020.94 1021.10 1021.04 1020.74 1020.22 1019.51 1018.71 1017.92 1017.24 1016.75 1016.51 1016.53 1016.77 1017.19 1017.68 1018.19 1018.62 1018.95 1019.15 1019.25 1019.27 1019.25 1019.26 1019.32 1019.46 1019.67 1019.95 1020.26 1020.60 1020.92 1021.21 1021.45 1021.65 1021.81 1021.92 1021.99 1022.03 1022.04 1022.02 1021.97 1021.90 1021.81 1021.71 1021.61 1021.54 1021.52
1019.83 1020.27 1020.68 1020.99 1021.11 1021.00 1020.62 1019.99 1019.17 1018.25 1017.36 1016.60 1016.06 1015.80 1015.82 1016.10 1016.57 1017.13 1017.70 1018.21 1018.59 1018.84 1018.96 1018.99 1018.98 1018.99 1019.04 1019.18 1019.40 1019.69 1020.04 1020.41 1020.77 1021.10 1021.40 1021.64 1021.84 1021.99 1022.12 1022.21 1022.27 1022.30 1022.30 1022.28 1022.23 1022.16 1022.08 1022.00 1021.95
1019.83 1020.30 1020.73 1021.02 1021.11 1020.93 1020.47 1019.74 1018.82 1017.80 1016.81 1015.96 1015.36 1015.06 1015.07 1015.36 1015.85 1016.46 1017.08 1017.65 1018.09 1018.40 1018.57 1018.65 1018.68 1018.72 1018.80 1018.95 1019.19 1019.50 1019.87 1020.26 1020.65 1021.00 1021.32 1021.59 1021.82 1022.01 1022.17 1022.31 1022.42 1022.52 1022.59 1022.63 1022.64 1022.61 1022.57 1022.51 1022.45
1019.81 1020.31 1020.73 1021.01 1021.05 1020.81 1020.28 1019.48 1018.47 1017.38 1016.32 1015.41 1014.75 1014.40 1014.37 1014.62 1015.10 1015.71 1016.36 1016.96 1017.46 1017.83 1018.08 1018.23 1018.32 1018.42 1018.56 1018.75 1019.03 1019.36 1019.74 1020.14 1020.54 1020.90 1021.22 1021.50 1021.75 1021.96 1022.15 1022.33 1022.50 1022.66 1022.79 1022.91 1022.99 1023.03 1023.03 1023.00 1022.95
1019.74 1020.23 1020.63 1020.87 1020.87 1020.59 1020.01 1019.17 1018.14 1017.02 1015.93 1014.99 1014.29 1013.89 1013.80 1013.99 1014.41 1014.98 1015.60 1016.20 1016.72 1017.14 1017.45 1017.68 1017.87 1018.06 1018.27 1018.53 1018.86 1019.23 1019.63 1020.03 1020.43 1020.78 1021.10 1021.38 1021.63 1021.86 1022.07 1022.29 1022.51 1022.72 1022.92 1023.11 1023.25 1023.36 1023.42 1023.44 1023.42
1019.57 1020.03 1020.38 1020.57 1020.53 1020.23 1019.64 1018.81 1017.81 1016.72 1015.66 1014.73 1014.02 1013.57 1013.42 1013.52 1013.85 1014.32 1014.87 1015.41 1015.92 1016.36 1016.72 1017.03 1017.31 1017.59 1017.90 1018.25 1018.63 1019.05 1019.48 1019.90 1020.30 1020.65 1020.97 1021.24 1021.49 1021.73 1021.97 1022.21 1022.47 1022.73 1022.98 1023.22 1023.43 1023.60 1023.72 1023.78 1023.80
Thickness
5781 5784 5785 5778 5767 5755 5744 5744 5751 5749 5751 5757 5761 5760 5756 5752 5748 5740 5753 5763 5765 5765 5764 5762 5762 5762 5763 5763 5764 5763 5763 5763 5763 5762 5762 5762 5762 5761 5761 5761 5762 5762 5762 5762 5763 5764 5765 5766 5767
5782 5783 5778 5771 5757 5742 5736 5744 5745 5747 5752 5757 5758 5757 5753 5748 5753 5752 5755 5760 5762 5763 5762 5760 5759 5759 5760 5760 5761 5761 5761 5761 5761 5760 5760 5760 5760 5759 5760 5759 5760 5760 5760 5760 5761 5761 5763 5763 5764
5780 5780 5770 5761 5749 5742 5736 5743 5746 5749 5754 5754 5751 5752 5748 5743 5749 5751 5755 5759 5760 5760 5759 5757 5756 5756 5757 5757 5758 5758 5758 5758 5758 5758 5758 5757 5757 5757 5758 5757 5757 5758 5758 5758 5759 5759 5760 5761 5761
5776 5770 5764 5751 5738 5742 5745 5746 5749 5747 5749 5751 5750 5744 5744 5746 5750 5753 5755 5757 5757 5757 5756 5754 5753 5753 5754 5754 5755 5756 5756 5755 5755 5755 5755 5755 5755 5756 5755 5755 5756 5756 5756 5756 5757 5757 5758 5758 5758
5773 5762 5748 5738 5735 5740 5747 5750 5751 5746 5744 5746 5747 5738 5736 5744 5751 5752 5752 5754 5754 5754 5753 5752 5750 5751 5751 5752 5752 5753 5753 5753 5753 5753 5753 5753 5753 5753 5753 5754 5754 5754 5754 5754 5755 5755 5755 5756 5756
5760 5756 5739 5728 5729 5736 5743 5748 5748 5743 5741 5742 5741 5736 5732 5742 5745 5747 5750 5751 5752 5751 5751 5749 5748 5748 5749 5749 5750 5750 5751 5751 5751 5750 5750 5751 5751 5751 5751 5752 5752 5752 5752 5752 5752 5753 5753 5753 5753
5752 5745 5734 5731 5727 5730 5737 5746 5744 5741 5737 5738 5742 5734 5732 5737 5743 5746 5747 5748 5749 5748 5748 5749 5749 5748 5747 5747 5748 5748 5748 5749 5748 5748 5748 5748 5749 5749 5749 5750 5750 5750 5750 5751 5750 5750 5751 5751 5750
5755 5745 5731 5730 5726 5726 5737 5742 5742 5740 5736 5742 5744 5733 5729 5735 5742 5744 5745 5746 5746 5746 5746 5747 5747 5748 5749 5748 5745 5746 5746 5746 5746 5746 5746 5747 5747 5748 5748 5749 5748 5748 5748 5748 5748 5748 5748 5748 5748
5755 5738 5726 5727 5726 5727 5736 5735 5736 5742 5739 5737 5740 5740 5738 5740 5741 5740 5740 5741 5742 5743 5745 5746 5746 5747 5746 5746 5744 5745 5744 5744 5745 5746 5745 5747 5750 5750 5749 5746 5746 5746 5746 5746 5746 5745 5745 5746 5746
5745 5729 5725 5732 5735 5733 5733 5733 5734 5735 5731 5730 5731 5735 5737 5737 5737 5736 5736 5737 5738 5740 5742 5744 5745 5745 5745 5744 5744 5745 5745 5745 5747 5747 5747 5748 5748 5747 5747 5744 5743 5743 5744 5744 5743 5744 5744 5746 5747
5739 5728 5728 5733 5737 5736 5732 5731 5736 5732 5726 5729 5728 5729 5732 5733 5734 5734 5735 5736 5737 5739 5740 5742 5743 5742 5742 5743 5743 5743 5743 5743 5745 5746 5745 5745 5746 5747 5746 5746 5745 5744 5744 5745 5743 5745 5745 5745 5744
5732 5729 5731 5731 5734 5733 5731 5731 5730 5729 5729 5735 5735 5732 5731 5730 5731 5732 5733 5735 5736 5737 5737 5739 5741 5741 5740 5741 5741 5742 5743 5743 5743 5743 5744 5744 5744 5745 5745 5744 5743 5743 5743 5742 5743 5742 5742 5742 5742
5728 5724 5728 5730 5731 5731 5730 5727 5726 5725 5731 5735 5733 5730 5728 5730 5731 5733 5734 5735 5736 5735 5735 5737 5738 5739 5739 5739 5739 5740 5739 5741 5740 5738 5741 5742 5742 5743 5742 5742 5739 5740 5740 5740 5739 5740 5739 5739 5739
5726 5725 5724 5727 5727 5728 5725 5724 5724 5721 5729 5729 5728 5727 5728 5728 5730 5732 5732 5734 5735 5735 5735 5735 5736 5736 5737 5738 5739 5738 5737 5736 5737 5737 5738 5739 5739 5740 5739 5739 5737 5737 5737 5737 5737 5737 5735 5735 5734
5728 5720 5718 5721 5723 5724 5724 5715 5717 5722 5726 5725 5725 5725 5725 5727 5729 5730 5732 5733 5735 5735 5735 5734 5734 5734 5735 5735 5734 5735 5735 5735 5735 5735 5736 5737 5736 5737 5737 5737 5736 5735 5734 5735 5734 5733 5732 5731 5730
5723 5717 5707 5713 5720 5721 5717 5704 5715 5722 5723 5720 5722 5722 5722 5724 5728 5731 5732 5734 5734 5734 5733 5732 5731 5732 5732 5732 5731 5732 5732 5732 5732 5732 5733 5734 5734 5734 5733 5733 5733 5732 5731 5731 5730 5729 5729 5727 5726
5714 5707 5704 5708 5718 5720 5717 5708 5715 5721 5721 5718 5719 5721 5722 5723 5726 5729 5732 5733 5733 5733 5732 5730 5730 5730 5729 5729 5729 5729 5730 5729 5730 5730 5730 5731 5731 5731 5731 5730 5730 5730 5729 5728 5727 5726 5725 5723 5721
5706 5708 5707 5707 5715 5717 5713 5712 5715 5719 5719 5719 5719 5721 5722 5723 5725 5729 5730 5731 5731 5731 5731 5729 5728 5728 5727 5727 5728 5727 5727 5727 5727 5727 5727 5727 5727 5728 5728 5728 5728 5726 5725 5724 5724 5721 5720 5719 5718
5717 5712 5708 5711 5717 5715 5712 5712 5715 5718 5718 5718 5720 5721 5722 5723 5726 5728 5728 5729 5729 5729 5729 5727 5726 5726 5725 5725 5725 5724 5724 5725 5725 5724 5724 5723 5724 5725 5725 5725 5724 5722 5722 5720 5721 5719 5717 5716 5717
5714 5709 5708 5710 5715 5715 5712 5712 5718 5719 5720 5722 5723 5723 5723 5723 5724 5725 5726 5727 5728 5727 5727 5725 5724 5724 5724 5723 5724 5723 5722 5723 5722 5720 5720 5721 5721 5721 5722 5722 5721 5719 5717 5717 5716 5714 5714 5713 5713
5711 5710 5709 5707 5709 5714 5711 5708 5714 5720 5723 5723 5726 5727 5728 5725 5725 5725 5725 5726 5726 5726 5725 5724 5724 5723 5722 5722 5722 5721 5720 5720 5720 5719 5718 5718 5718 5718 5718 5718 5718 5717 5717 5714 5712 5712 5710 5709 5710
5705 5714 5712 5708 5706 5705 5708 5699 5714 5721 5719 5721 5725 5727 5728 5728 5728 5727 5726 5725 5726 5726 5726 5725 5724 5723 5721 5721 5721 5720 5718 5717 5717 5718 5717 5716 5716 5715 5715 5715 5715 5714 5714 5712 5712 5711 5710 5708 5707
5710 5714 5712 5710 5708 5706 5709 5705 5716 5723 5718 5723 5728 5731 5731 5731 5731 5729 5728 5728 5728 5727 5725 5725 5723 5722 5721 5721 5719 5719 5719 5718 5717 5717 5715 5716 5714 5713 5712 5712 5712 5712 5711 5710 5708 5708 5708 5707 5706
5713 5710 5708 5709 5708 5696 5707 5704 5710 5724 5728 5731 5734 5736 5735 5734 5733 5731 5731 5729 5727 5726 5724 5723 5722 5720 5720 5719 5719 5719 5717 5716 5715 5714 5714 5714 5713 5712 5710 5709 5709 5709 5708 5707 5705 5705 5704 5704 5702
5712 5705 5694 5691 5691 5698 5710 5705 5715 5735 5739 5740 5739 5739 5739 5737 5734 5731 5729 5727 5725 5724 5723 5722 5721 5719 5719 5719 5720 5719 5717 5716 5715 5714 5713 5713 5712 5711 5709 5708 5707 5706 5705 5704 5703 5703 5701 5701 5699
5711 5710 5695 5685 5689 5701 5705 5706 5726 5739 5741 5743 5744 5743 5740 5738 5736 5732 5731 5728 5726 5725 5723 5722 5721 5719 5719 5718 5719 5719 5718 5716 5715 5713 5713 5712 5711 5709 5706 5705 5704 5703 5702 5701 5700 5700 5699 5698 5697
5707 5708 5713 5704 5700 5697 5707 5717 5730 5737 5737 5739 5740 5739 5737 5738 5736 5735 5733 5730 5728 5726 5725 5724 5722 5720 5718 5718 5717 5717 5717 5715 5713 5713 5712 5710 5709 5706 5704 5703 5702 5700 5699 5698 5698 5697 5695 5695 5694
5716 5714 5706 5699 5688 5688 5700 5708 5717 5728 5732 5735 5737 5737 5738 5739 5737 5736 5735 5732 5730 5729 5726 5725 5723 5721 5719 5718 5717 5714 5714 5712 5711 5711 5709 5708 5706 5704 5703 5701 5700 5698 5697 5696 5695 5694 5691 5691 5689
5705 5704 5704 5702 5700 5691 5689 5706 5730 5731 5734 5735 5737 5739 5740 5739 5738 5737 5736 5734 5732 5730 5727 5724 5722 5721 5719 5718 5716 5713 5712 5710 5709 5708 5707 5705 5703 5702 5701 5699 5698 5696 5695 5694 5692 5692 5690 5689 5688
5713 5711 5706 5695 5695 5698 5695 5706 5734 5734 5736 5736 5737 5740 5741 5741 5740 5739 5736 5734 5731 5729 5727 5725 5723 5721 5719 5717 5715 5713 5711 5709 5707 5706 5704 5702 5701 5700 5698 5697 5695 5694 5692 5691 5690 5688 5686 5686 5684